FW5156 Weather Reports


Display with metric or nautical units.
time (UTC)temp
F
wind
direction
speed
MPH
gust
MPH
rain 1hr
in
rain 24hr
in
rain mn
in
humidity
%
barometer
mb
20260905152516 80 0.0 2.0 0.00 0.04 0.04 71 1015.6
20260905151516 79 90 1.0 6.0 0.00 0.04 0.04 72 1015.6
20260905150516 78 90 1.0 6.0 0.00 0.04 0.04 75 1015.4
20260905145516 77 0.0 4.0 0.00 0.04 0.04 79 1015.4
20260905144516 77 0.0 4.0 0.00 0.04 0.04 78 1015.5
20260905143516 77 0.0 0.0 0.00 0.04 0.04 79 1015.7
20260905142516 76 0.0 4.0 0.00 0.04 0.04 81 1015.6
20260905141516 75 90 2.0 7.0 0.00 0.04 0.04 82 1015.6
20260905140516 74 68 1.0 3.0 0.00 0.04 0.04 85 1015.7
20260905134516 73 113 2.0 5.0 0.01 0.04 0.04 89 1015.5
20260905133516 72 0.0 2.0 0.01 0.04 0.04 90 1015.6
20260905132516 72 0.0 4.0 0.04 0.04 0.04 90 1015.5
20260905131516 72 113 1.0 4.0 0.04 0.04 0.04 92 1015.7
20260905130516 71 0.0 2.0 0.04 0.04 0.04 91 1015.8
20260905125516 71 0.0 4.0 0.04 0.04 0.04 91 1015.7
20260905124516 71 0.0 6.0 0.03 0.03 0.03 89 1015.7
20260905123516 72 0.0 4.0 0.03 0.03 0.03 86 1015.7
20260905122516 73 113 1.0 5.0 0.00 0.00 0.00 83 1016.2
20260905121516 74 113 1.0 8.0 0.00 0.00 0.00 84 1015.8
20260905120536 74 113 3.0 9.0 0.00 0.00 0.00 86 1015.7
20260905115516 75 113 2.0 6.0 0.00 0.00 0.00 90 1016.0
20260905114517 75 203 2.0 6.0 0.00 0.00 0.00 91 1015.5
20260905113516 75 0.0 0.0 0.00 0.00 0.00 91 1014.9
20260905112536 75 0.0 0.0 0.00 0.00 0.00 90 1014.5
20260905111516 75 0.0 0.0 0.00 0.00 0.00 90 1014.4
20260905110516 75 0.0 0.0 0.00 0.00 0.00 89 1014.3
20260905105516 76 0.0 0.0 0.00 0.00 0.00 89 1014.2
20260905104516 76 0.0 0.0 0.00 0.00 0.00 89 1014.3
20260905103536 76 0.0 0.0 0.00 0.00 0.00 88 1014.2
20260905102516 76 0.0 0.0 0.00 0.00 0.00 88 1014.2
20260905101516 76 0.0 0.0 0.00 0.00 0.00 89 1014.2
20260905100516 76 0.0 0.0 0.00 0.00 0.00 89 1014.3
20260905095516 77 0.0 0.0 0.00 0.00 0.00 88 1014.3
20260905094516 77 0.0 0.0 0.00 0.00 0.00 87 1014.4
20260905093516 77 0.0 0.0 0.00 0.00 0.00 87 1014.4
20260905092516 77 0.0 0.0 0.00 0.00 0.00 86 1014.5
20260905091536 78 0.0 0.0 0.00 0.00 0.00 85 1014.4
20260905090516 78 0.0 0.0 0.00 0.00 0.00 85 1014.3
20260905085516 78 0.0 1.0 0.00 0.00 0.00 83 1014.2
20260905084516 78 0.0 0.0 0.00 0.00 0.00 83 1014.0
20260905083556 78 0.0 0.0 0.00 0.00 0.00 83 1013.9
20260905082516 78 0.0 1.0 0.00 0.00 0.00 84 1013.8
20260905081516 79 0.0 0.0 0.00 0.00 0.00 84 1013.8
20260905080516 79 0.0 0.0 0.00 0.00 0.00 84 1013.8
20260905075516 79 0.0 0.0 0.00 0.00 0.00 84 1013.7
20260905074557 79 0.0 0.0 0.00 0.00 0.00 83 1013.6
20260905073516 79 0.0 0.0 0.00 0.00 0.00 83 1013.6
20260905072516 80 0.0 1.0 0.00 0.00 0.00 82 1013.8
20260905071516 80 0.0 0.0 0.00 0.00 0.00 82 1013.9
20260905070516 80 0.0 0.0 0.00 0.00 0.00 81 1014.0
20260905065516 80 0.0 0.0 0.00 0.00 0.00 81 1014.1
20260905064516 80 0.0 0.0 0.00 0.00 0.00 81 1014.2
20260905063516 80 0.0 0.0 0.00 0.00 0.00 81 1014.4
20260905062536 80 0.0 0.0 0.00 0.00 0.00 80 1014.4
20260905061536 80 0.0 0.0 0.00 0.00 0.00 80 1014.6
20260905060536 81 0.0 0.0 0.00 0.00 0.00 80 1014.8
20260905055516 81 0.0 0.0 0.00 0.00 0.00 80 1014.9
20260905054536 80 0.0 0.0 0.00 0.00 0.00 81 1014.7
20260905053536 80 0.0 0.0 0.00 0.00 0.00 82 1014.8
20260905052537 80 0.0 0.0 0.00 0.00 0.00 82 1014.8
20260905051516 80 0.0 0.0 0.00 0.00 0.00 83 1014.9
20260905050516 80 0.0 0.0 0.00 0.00 0.00 83 1014.8
20260905045516 80 0.0 0.0 0.00 0.00 0.00 83 1014.9
20260905044516 80 0.0 0.0 0.00 0.00 0.00 82 1015.0
20260905043516 80 0.0 0.0 0.00 0.00 0.00 82 1015.0
20260905042516 80 0.0 0.0 0.00 0.00 0.00 82 1015.1
20260905041516 80 0.0 0.0 0.00 0.00 0.00 82 1015.1
20260905040516 80 0.0 0.0 0.00 0.00 0.00 82 1015.1
20260905035516 80 0.0 0.0 0.00 0.00 0.00 81 1015.0
20260905034516 81 0.0 0.0 0.00 0.00 0.00 81 1015.0
20260905033516 81 0.0 0.0 0.00 0.00 0.00 81 1015.1
20260905032516 81 0.0 0.0 0.00 0.00 0.00 81 1015.1
20260905031516 81 0.0 0.0 0.00 0.00 0.00 82 1015.2
20260905030536 81 0.0 0.0 0.00 0.00 0.00 81 1015.0
20260905024516 81 0.0 0.0 0.00 0.00 0.00 80 1014.7
20260905023516 81 0.0 0.0 0.00 0.00 0.00 80 1014.8
20260905022516 82 0.0 0.0 0.00 0.00 0.00 81 1014.7
20260905021516 82 0.0 0.0 0.00 0.00 0.00 79 1014.8
20260905020516 82 0.0 0.0 0.00 0.00 0.00 78 1014.8
20260905015516 82 0.0 0.0 0.00 0.00 0.00 79 1014.8
20260905014516 82 0.0 0.0 0.00 0.00 0.00 80 1014.6
20260905013516 82 0.0 0.0 0.00 0.00 0.00 80 1014.6
20260905012536 82 0.0 0.0 0.00 0.00 0.00 81 1014.4
20260905011516 82 0.0 0.0 0.00 0.00 0.00 80 1014.3
20260905010516 82 0.0 0.0 0.00 0.00 0.00 81 1014.3
20260905005516 83 0.0 0.0 0.00 0.00 0.00 81 1014.2
20260905004516 83 0.0 0.0 0.00 0.00 0.00 82 1014.2
20260905003516 84 0.0 0.0 0.00 0.00 0.00 82 1014.0
20260905002516 84 0.0 0.0 0.00 0.00 0.00 81 1014.2
20260905001516 85 0.0 0.0 0.00 0.00 0.00 80 1014.3
20260905000516 85 0.0 0.0 0.00 0.00 0.00 79 1014.2
20260904235516 87 0.0 0.0 0.00 0.00 0.00 78 1014.2
20260904234516 88 0.0 0.0 0.00 0.00 0.00 76 1014.3
20260904233516 89 0.0 0.0 0.00 0.00 0.00 74 1014.4
20260904232516 90 0.0 0.0 0.00 0.00 0.00 71 1014.3
20260904231516 92 0.0 0.0 0.00 0.00 0.00 69 1014.2
20260904230516 92 0.0 0.0 0.00 0.00 0.00 66 1014.2
20260904225516 94 0.0 0.0 0.00 0.00 0.00 64 1014.3
20260904224516 95 0.0 0.0 0.00 0.00 0.00 62 1014.4
20260904223516 95 0.0 2.0 0.00 0.00 0.00 60 1014.3
20260904222556 95 0.0 2.0 0.00 0.00 0.00 58 1014.3
20260904221516 95 0.0 1.0 0.00 0.00 0.00 59 1014.3
20260904220516 95 0.0 2.0 0.00 0.00 0.00 58 1014.3
20260904215516 95 0.0 2.0 0.00 0.00 0.00 58 1014.3
20260904214516 95 0.0 3.0 0.00 0.00 0.00 57 1014.3
20260904213516 95 0.0 3.0 0.00 0.00 0.00 57 1014.4
20260904212516 96 248 1.0 3.0 0.00 0.00 0.00 56 1014.4
20260904211516 96 0.0 4.0 0.00 0.00 0.00 56 1014.6
20260904210516 96 293 1.0 4.0 0.00 0.00 0.00 55 1014.6
20260904205516 96 0.0 3.0 0.00 0.00 0.00 54 1014.9
20260904204537 96 0.0 2.0 0.00 0.00 0.00 56 1015.0
20260904203516 97 0.0 2.0 0.00 0.00 0.00 53 1015.1
20260904202516 96 0.0 3.0 0.00 0.00 0.00 54 1015.2
20260904201516 96 0.0 3.0 0.00 0.00 0.00 57 1015.3
20260904200516 95 0.0 5.0 0.00 0.00 0.00 54 1015.4
20260904195517 96 225 1.0 4.0 0.00 0.00 0.00 55 1015.4
20260904194516 96 203 1.0 5.0 0.00 0.00 0.00 56 1015.7
20260904193516 96 315 2.0 6.0 0.00 0.00 0.00 55 1015.8
20260904192516 96 270 2.0 8.0 0.00 0.00 0.00 54 1016.0
20260904191536 96 0.0 3.0 0.00 0.00 0.00 56 1016.1
20260904190516 96 0.0 4.0 0.00 0.00 0.00 53 1016.1
20260904185516 95 0.0 4.0 0.00 0.00 0.00 56 1016.3
20260904184536 95 315 1.0 4.0 0.00 0.00 0.00 55 1016.4
20260904183516 95 203 1.0 7.0 0.00 0.00 0.00 57 1016.6
20260904182516 95 203 1.0 5.0 0.00 0.00 0.00 56 1016.7
20260904181516 94 225 1.0 5.0 0.00 0.00 0.00 58 1016.7
20260904180516 95 315 2.0 7.0 0.00 0.00 0.00 59 1016.8
20260904175516 94 203 1.0 5.0 0.00 0.00 0.00 58 1016.9
20260904174516 95 315 1.0 7.0 0.00 0.00 0.00 55 1016.9
20260904173516 95 293 1.0 4.0 0.00 0.00 0.00 57 1017.1
20260904172516 95 338 1.0 9.0 0.00 0.00 0.00 57 1017.3
20260904171516 94 0.0 1.0 0.00 0.00 0.00 59 1017.3
20260904170516 93 225 1.0 8.0 0.00 0.00 0.00 59 1017.5
20260904165536 93 270 1.0 6.0 0.00 0.00 0.00 59 1017.5
20260904164536 93 0.0 3.0 0.00 0.00 0.00 61 1017.4
20260904163516 92 0.0 3.0 0.00 0.00 0.00 63 1017.5
20260904162516 93 0.0 2.0 0.00 0.00 0.00 63 1017.4
20260904161516 92 270 1.0 19.0 0.00 0.00 0.00 64 1017.6
20260904160536 90 270 1.0 11.0 0.00 0.00 0.00 65 1017.4
20260904155516 91 0.0 2.0 0.00 0.00 0.00 67 1017.6
20260904154516 89 270 1.0 5.0 0.00 0.00 0.00 68 1017.4
20260904153516 89 225 1.0 8.0 0.00 0.00 0.00 67 1017.5